www.pogodaiklimat.ru

Погода и климат >> Архив погоды >> Россия >> Дагестан >> Хасавюрт


ПОГОДА в Хасавюрте

АРХИВ ПОГОДЫ в Хасавюрте

Время (UTC), дата Ветер
(напр.,м/с)
 
Видим.   Явления Облачность Т
(С)
Тd
(С)
f
(%)
Тe
(С)
Тes
(С)
Комфортность P
(гПа)
Po
(гПа)
Тmin
(С)
Tmax
(С)
R
(мм)
R24
(мм)
S
(см)
18 16.07 З 1 50 км ясно +26.7 +16.0 52 +30 +30 душно 1005.2 993.2
21 16.07 ЮЗ 2 50 км ясно +25.3 +16.2 57 +29 +29 душно 1006.4 994.4
00 17.07 З 3 50 км ясно +24.3 +16.5 62 +28 +28 душно 1007.6 995.5
03 17.07 З 3
{10}
50 км 4/4 1000 м
[Cu hum]
+22.0 +15.6 67 +26 +27 душно 1010.1 997.9 +21.5
06 17.07 З 3 50 км 8/8 1000 м
[Cu hum]
+24.5 +15.0 55 +27 +29 жарко 1009.6 997.5
09 17.07 СЗ 2 50 км 3/3 1000 м
[Cu med, cong]
+28.8 +15.0 43 +31 +45 жарко 1008.0 996.1
12 17.07 З 1 20 км 10/10 600 м
[Cb cap]
+28.1 +15.0 45 +31 +31 душно 1007.1 995.1
15 17.07 ЮЗ 2 20 км 10/10 600 м
[Cb cap]
+26.7 +15.1 49 +29 +29 жарко 1006.6 994.6 +30.2
18 17.07 З 2 20 км 10/10 600 м
[Cb cap]
+24.7 +15.7 57 +28 +28 душно 1007.1 995.0
21 17.07 ЮЗ 1 50 км 6/0
[Ac As]
+23.6 +16.2 63 +27 +27 жарко 1006.8 994.7
00 18.07 ЮЗ 2 50 км 4/0
[Ac cast]
+22.0 +16.4 71 +26 +26 душно 1006.2 994.1
03 18.07 ЮЗ 2 50 км ясно +22.0 +15.8 68 +26 +27 душно 1006.6 994.4 +21.1
06 18.07 В 3 50 км ясно +27.9 +15.9 48 +31 +41 душно 1005.4 993.5
09 18.07 В 6-10
{11}
50 км ясно +33.0 +14.6 33 +35 +42 душно 1004.0 992.3
12 18.07 В 5
{12}
50 км ясно +33.1 +13.7 31 +34 +40 очень
жарко
1003.6 991.9
15 18.07 В 3
{11}
50 км ясно +30.9 +13.8 35 +32 +33 жарко 1004.9 993.1 +34.3
18 18.07 В 1 50 км ясно +27.3 +16.2 51 +31 +31 душно 1007.2 995.3
21 18.07 З 1 20 км 10/10 600 м
[Cb cap]
+25.3 +16.6 59 +29 +29 душно 1008.1 996.0
00 19.07 З 1 50 км 8/0
[Ac trans]
+24.3 +17.4 65 +28 +28 душно 1008.6 996.5
03 19.07 З 2 50 км 8/8 600 м
[Cb cap]
+22.0 +18.1 79 +27 +27 душно 1010.7 998.5 +21.8
06 19.07 З 3
{10}
50 км 6/4 1000 м
[Cu med, cong Ci fib]
+26.0 +18.1 62 +31 +36 очень
душно
1011.7 999.6
09 19.07 З 2 50 км ясно +30.6 +17.1 44 +34 +53 опасность
солнечного
удара
1011.4 999.5
12 19.07 С 1 50 км ясно +34.3 +15.0 31 +36 +49 душно 1010.5 998.8
15 19.07 З 3 50 км 8/8 600 м
[Cb cap]
+29.3 +17.8 50 +34 +34 очень
душно
1011.2 999.3 +34.3
18 19.07 З 2 50 км 8/8 600 м
[Cb cap]
+27.0 +17.9 57 +31 +31 душно 1013.3 1001.3
21 19.07 З 3 50 км 8/8 600 м
[Cb cap]
+25.6 +18.3 64 +30 +30 душно 1014.4 1002.3
00 20.07 З 3 н/о н/о +23.5 +17.2 68 +27 +27 душно 1015.6 1003.4
03 20.07 З 2 20 км 10/10 600 м
[Cb cap]
+23.2 +17.1 69 +28 +28 душно 1016.9 1004.7 +23.2
06 20.07 З 2 50 км 8/8 1000 м
[Cu hum]
+25.9 +16.8 57 +30 +32 душно 1017.4 1005.3 +23.0
09 20.07 СЗ 2 50 км ясно +31.2 +16.2 40 +34 +53 опасность
солнечного
удара
1016.5 1004.6
12 20.07 С 1 50 км 10/8 600 м
[Cb cap Ac trans]
+30.9 +16.8 43 +34 +35 душно 1015.8 1003.9
15 20.07 СЗ 1 20 км 10/10 600 м
[Cb cap]
+29.5 +16.5 45 +33 +33 душно 1015.8 1003.8 +32.5
18 20.07 В 1 20 км 10/10 600 м
[Cb cap]
+26.3 +18.1 61 +31 +31 душно 1016.7 1004.6
21 20.07 штиль 0 20 км 10/10 600 м
[Cb cap]
+24.0 +18.8 73 +29 +29 душно 1016.0 1003.8
00 21.07 ЮЗ 1 50 км ясно +22.6 +17.4 72 +27 +27 душно 1015.8 1003.6
03 21.07 штиль 0 50 км ясно +22.6 +17.3 72 +27 +29 душно 1016.0 1003.8 +21.9
06 21.07 В 2 50 км 9/5 1000 м
[Cu hum Ci fib]
+28.0 +18.3 56 +33 +38 очень
душно
1014.7 1002.7
09 21.07 В 6-14
{16}
50 км 8/4 1000 м
[Cu hum Ci fib]
+33.3 +12.5 28 +34 +37 очень
жарко
1011.7 999.9
12 21.07 В 6-12
{17}
50 км 8/4 1000 м
[Cu hum Ci fib]
+32.7 +13.0 30 +33 +36 жарко 1010.2 998.3
15 21.07 В 5-11
{14}
50 км 4/0
[Ac trans]
+29.3 +15.2 42 +32 +32 душно 1010.1 998.2 +33.8
18 21.07 В 4
{11}
50 км 4/0
[Ac trans]
+25.2 +18.8 68 +30 +30 душно 1010.4 998.4
21 21.07 ЮВ 1 50 км 8/0
[Ac trans]
+24.8 +16.5 60 +28 +28 жарко 1010.4 998.2
00 22.07 З 1 50 км 8/8 600 м
[Cb cap]
+23.9 +17.5 67 +28 +28 душно 1011.0 998.8
03 22.07 З 3 20 км 10/10 600 м
[Cb cap]
+24.4 +17.4 65 +28 +28 душно 1011.9 999.8 +23.5
06 22.07 З 3 20 км 10/10 600 м
[Cb cap]
+26.0 +18.7 64 +31 +31 очень
душно
1011.5 999.5
09 22.07 З 3 50 км 8/8 1000 м
[Cu med, cong]
+31.4 +17.6 44 +36 +39 очень
душно
1010.8 999.0
12 22.07 З 4
{12}
50 км 10/8 1000 м
[Cu med, cong Ac trans]
+30.7 +16.4 42 +34 +34 очень
душно
1011.1 999.2
15 22.07 З 4
{11}
20 км 10/10 600 м
[Cb cap]
+27.7 +16.4 50 +31 +31 душно 1012.8 1000.7 +31.9
18 22.07 З 3
{10}
20 км 10/10 600 м
[Cb cap]
+25.5 +14.9 52 +28 +28 жарко 1014.8 1002.7
21 22.07 З 1
{11}
20 км 10/10 600 м
[Cb cap]
+22.0 +17.5 76 +27 +27 душно 1013.9 1001.6
00 23.07 З 1 20 км 10/10 600 м
[Cb cap]
+20.8 +17.6 82 +26 +26 душно 1014.9 1002.6
03 23.07 штиль 0 50 км 8/8 600 м
[Cb cap]
+20.2 +17.9 87 +23 +24 комфорт 1014.1 1001.8 +20.0
06 23.07 С 1 50 км 6/0
[Ac trans]
+24.9 +17.3 63 +29 +38 душно 1011.9 999.8
09 23.07 В 2 20 км 10/10 600 м
[Cb cap]
+28.2 +17.3 52 +32 +32 душно 1010.8 998.8
12 23.07 В 3 50 км 6/6 1000 м
[Cu med, cong]
+31.9 +17.6 43 +36 +40 очень
душно
1009.3 997.5
15 23.07 В 3 50 км 8/8 1000 м
[Cu med, cong]
+27.4 +17.2 54 +31 +32 душно 1009.3 997.3 +33.0

 

Местоположение метеостанции Хасавюрт (Дагестан, Россия): широта 43.25 долгота 46.58 высота над уровнем моря 117 м.

В архиве по умолчанию представлена погода в Хасавюрте за последнюю неделю. Архивные данные за месяц целиком и за предыдущие месяцы, начиная с января 2011 года, Вы можете получить, выбрав интересующий диапазон дат из раскрывающегося списка и нажав кнопку "Ввод!".


*Определитесь, кто Вы:
робот инопланетянин человек

Внимание! Время в таблицах - всемирное. Для получения местного времени необходимо прибавить поправку, которая равна 3 ч.

Смотрите также архив погоды в соседних городах и на ближайших метеорологических станциях:

Погода в Шелковской (Чечня, Россия) (35 км)
Погода в Гудермесе (Чечня, Россия) (39 км)
Погода в Бабаюрте (Дагестан, Россия) (42 км)
Погода в Буйнакске (Дагестан, Россия) (65 км)
Погода в Кизляре (Дагестан, Россия) (65 км)
Погода в Грозном (Чечня, Россия) (70 км)
Погода в Хунзахе (Дагестан, Россия) (76 км)
Погода в Махачкале (Дагестан, Россия) (77 км)
Погода в Шатое (Чечня, Россия) (84 км)
Погода в Гунибе (Дагестан, Россия) (100 км)

Пояснения к столбцам:

Ветер - указаны скорость ветра в м/с - средняя за 10 мин, порывы в срок и между сроками (в фигурных скобках) и направление, откуда дует ветер: С - северный, СВ - северо-восточный, В - восточный, ЮВ - юго-восточный, Ю - южный, ЮЗ - юго-западный, З - западный, СЗ - северо-западный.
Видимость - горизонтальная дальность видимости в метрах или километрах. При видимости от 1 до 10 км при отсутствии осадков обычно наблюдается дымка, при ухудшении видимости до 1 км и менее - туман. В сухую погоду видимость может ухудшаться дымом, пылью или мглою.
Явления - указаны атмосферные явления, наблюдавшиеся в срок или в последний час перед сроком; фигурными скобками обозначены явления, наблюдавшиеся между сроками (за 1-3 часа до срока); квадратными скобками обозначены град или гололедные отложения с указанием их диаметра в мм.
Облачность - указаны через наклонную черту общая и нижняя облачность в баллах и высота нижней границы облаков в метрах; квадратными скобками обозначены формы облаков: Ci - перистые, Cs - перисто-слоистые, Cc - перисто-кучевые, Ac - высококучевые, As - высокослоистые, Sc - слоисто-кучевые, Ns - слоисто-дождевые, Cu - кучевые, Cb - кучево-дождевые. Подробнее классификацию облаков см. в Атласе облаков (PDF).
T - Температура воздуха - температура, измеренная на высоте 2 м над землей.
Td - Температура точки росы - температура, при понижении до которой содержащийся в воздухе водяной пар достигнет насыщения.
f - Относительная влажность воздуха - влажноcть воздуха, измеренная на высоте 2 м над землей.
Te - Эффективная температура - температура, которую ощущает одетый по сезону человек в тени. Характеристика душности погоды. При расчете учитывается влияние влажности воздуха и скорости ветра на теплоощущения человека.
Tes - Эффективная температура на солнце - температура, которую ощущает человек, с поправкой на солнечный нагрев. Характеристика знойности погоды. Зависит от высоты солнца над горизонтом, облачности и скорости ветра. Ночью, в пасмурную погоду, а также при ветре 12 м/с и более поправка равна нулю.
P - Атмосферное давление - приведенное к уровню моря атмосферное давление.
Po - Атмосферное давление - измеренное на уровне метеостанции атмосферное давление.
Tmin - Минимальная температура - минимум температуры воздуха на высоте 2 м над землей.
Tmax - Максимальная температура - максимум температуры воздуха на высоте 2 м над землей.
R - Количество осадков - Количество выпавших осадков за период времени, мм. При наведении курсора мыши на число - период времени, за который выпало указанное количество осадков.
R24 - Количество осадков - Количество выпавших осадков за 24 часа, мм.
S - Снежный покров - Высота снежного покрова, см. При наведении курсора мыши на число - состояние снежного покрова и степень покрытия местности в баллах.